ニート彗星

C/2002 K1 ( NEAT )

English version
Home page
Updated on October 22, 2002

---------------------------------------------------------------------

・ プロフィール

発見日 2002年5月16日
発見光度 19.6等
発見者 Near-Earth-Asteroid Tracking Team (Jet Propulsion Laboratory)

・ 軌道要素

T 2002 June 16.4290 TT                                  MPC
q   3.230373             (2000.0)            P               Q
                   Peri.    4.4548      +0.1828867      -0.0095205
                   Node   280.5488      -0.9300846      -0.3257087
e   1.0            Incl.   89.7253      -0.3185830      +0.9454222
From 55 observations 2002 May 16-Aug. 12.

・ 星図

・ 光度変化

        m1 = 11.0 + 5 logΔ + 10.0 log r

---------------------------------------------------------------------

軌道要素はM.P.E.C. 2002-P66に掲載されたものです。
星図は StellaNavigator Ver.2.0 for Windows (アストロアーツ 編著 / アスキー出版局刊) で作成したものです。
光度グラフはComet for Windowsで作成したものです。

---------------------------------------------------------------------

Copyright(C) Seiichi Yoshida (comet@aerith.net). All rights reserved.